QPF
0.00 0.00 0.00 0.00 0.00 0.00 0.00 0.00 0.00 0.00 0.00 0.00 0.00 0.00 0.00 0.00 0.00 0.00 0.00 0.00 0.00 0.00 0.00 0.00 0.00 0.00 0.00 0.01 0.00 0.00 0.00 0.00 0.02 0.02 0.02 0.01 0.01 0.00 0.01 0.05 0.13 0.07 0.05 0.03 0.06 0.07 0.01 0.00 0.00
0.00 0.00 0.00 0.00 0.00 0.00 0.00 0.00 0.00 0.00 0.00 0.00 0.00 0.00 0.00 0.00 0.00 0.00 0.00 0.00 0.00 0.00 0.00 0.00 0.00 0.00 0.00 0.00 0.01 0.01 0.01 0.00 0.02 0.04 0.04 0.03 0.01 0.01 0.01 0.05 0.08 0.05 0.05 0.03 0.04 0.02 0.00 0.00 0.00
0.00 0.00 0.00 0.00 0.00 0.00 0.00 0.00 0.00 0.00 0.00 0.00 0.00 0.00 0.00 0.00 0.00 0.00 0.00 0.00 0.00 0.00 0.00 0.01 0.00 0.00 0.00 0.00 0.00 0.00 0.00 0.00 0.01 0.02 0.03 0.04 0.03 0.02 0.03 0.11 0.18 0.04 0.04 0.03 0.01 0.00 0.01 0.00 0.00
0.00 0.00 0.00 0.00 0.00 0.00 0.00 0.00 0.00 0.00 0.00 0.00 0.00 0.00 0.00 0.00 0.00 0.00 0.00 0.00 0.00 0.00 0.01 0.01 0.00 0.00 0.00 0.00 0.00 0.00 0.00 0.00 0.01 0.02 0.04 0.06 0.05 0.02 0.03 0.06 0.13 0.02 0.01 0.01 0.00 0.01 0.01 0.01 0.01
0.00 0.00 0.00 0.00 0.00 0.00 0.00 0.00 0.00 0.00 0.00 0.00 0.00 0.00 0.00 0.00 0.00 0.00 0.00 0.00 0.00 0.00 0.02 0.01 0.00 0.00 0.00 0.00 0.00 0.01 0.02 0.03 0.03 0.02 0.03 0.07 0.05 0.03 0.01 0.04 0.01 0.00 0.00 0.00 0.00 0.01 0.01 0.01 0.01
0.01 0.00 0.00 0.00 0.00 0.00 0.00 0.00 0.00 0.00 0.00 0.00 0.00 0.00 0.00 0.00 0.00 0.00 0.00 0.00 0.00 0.01 0.03 0.01 0.00 0.00 0.00 0.00 0.00 0.01 0.04 0.04 0.02 0.01 0.02 0.05 0.04 0.04 0.05 0.03 0.00 0.00 0.00 0.01 0.02 0.01 0.00 0.00 0.00
0.03 0.00 0.00 0.00 0.00 0.00 0.00 0.00 0.00 0.00 0.00 0.00 0.00 0.00 0.00 0.00 0.00 0.00 0.00 0.00 0.00 0.01 0.02 0.01 0.01 0.00 0.00 0.00 0.00 0.01 0.03 0.02 0.03 0.01 0.03 0.19 0.33 0.20 0.12 0.12 0.09 0.01 0.02 0.02 0.01 0.01 0.01 0.00 0.00
0.02 0.02 0.00 0.00 0.00 0.00 0.00 0.00 0.00 0.00 0.00 0.00 0.00 0.00 0.00 0.00 0.00 0.00 0.00 0.00 0.01 0.02 0.02 0.01 0.01 0.00 0.01 0.01 0.03 0.02 0.01 0.00 0.01 0.00 0.01 0.01 0.00 0.00 0.01 0.06 0.16 0.03 0.01 0.00 0.00 0.00 0.00 0.00 0.00
0.03 0.02 0.00 0.00 0.00 0.00 0.00 0.00 0.00 0.00 0.00 0.00 0.00 0.00 0.00 0.00 0.00 0.00 0.00 0.00 0.01 0.03 0.06 0.03 0.01 0.00 0.02 0.04 0.05 0.04 0.04 0.01 0.01 0.01 0.04 0.03 0.01 0.02 0.02 0.04 0.06 0.03 0.00 0.00 0.00 0.00 0.01 0.02 0.01
0.02 0.01 0.00 0.00 0.00 0.00 0.00 0.00 0.00 0.00 0.00 0.00 0.00 0.00 0.00 0.00 0.00 0.00 0.00 0.00 0.01 0.02 0.05 0.07 0.01 0.01 0.02 0.03 0.03 0.07 0.03 0.04 0.02 0.05 0.04 0.03 0.01 0.00 0.01 0.13 0.11 0.03 0.01 0.00 0.00 0.00 0.00 0.00 0.00
0.01 0.01 0.00 0.00 0.00 0.00 0.00 0.00 0.00 0.00 0.00 0.00 0.00 0.00 0.00 0.00 0.00 0.00 0.00 0.00 0.00 0.01 0.03 0.04 0.01 0.01 0.00 0.01 0.02 0.05 0.06 0.02 0.01 0.01 0.05 0.10 0.02 0.01 0.09 0.13 0.06 0.03 0.00 0.00 0.00 0.00 0.00 0.00 0.00
0.02 0.00 0.01 0.01 0.00 0.00 0.00 0.00 0.00 0.00 0.00 0.00 0.00 0.00 0.00 0.00 0.00 0.00 0.00 0.00 0.00 0.02 0.02 0.07 0.02 0.01 0.00 0.01 0.01 0.02 0.01 0.00 0.00 0.03 0.08 0.08 0.05 0.02 0.03 0.01 0.00 0.00 0.00 0.00 0.00 0.00 0.00 0.00 0.00
0.02 0.00 0.00 0.00 0.00 0.01 0.00 0.00 0.00 0.00 0.00 0.00 0.00 0.00 0.00 0.00 0.00 0.00 0.00 0.00 0.00 0.01 0.03 0.08 0.02 0.00 0.00 0.00 0.00 0.00 0.00 0.00 0.06 0.04 0.07 0.07 0.03 0.00 0.00 0.02 0.00 0.00 0.00 0.00 0.00 0.00 0.00 0.00 0.00
0.00 0.01 0.01 0.00 0.00 0.00 0.00 0.00 0.00 0.00 0.00 0.00 0.00 0.00 0.00 0.00 0.00 0.00 0.00 0.00 0.01 0.02 0.01 0.04 0.02 0.00 0.00 0.00 0.00 0.00 0.00 0.00 0.03 0.02 0.03 0.01 0.01 0.00 0.00 0.00 0.00 0.00 0.00 0.00 0.00 0.00 0.00 0.00 0.00
0.00 0.00 0.00 0.00 0.00 0.00 0.00 0.00 0.00 0.00 0.00 0.00 0.00 0.00 0.00 0.00 0.00 0.00 0.00 0.00 0.01 0.01 0.02 0.04 0.05 0.00 0.00 0.00 0.00 0.00 0.00 0.00 0.02 0.03 0.00 0.00 0.01 0.00 0.00 0.00 0.00 0.00 0.00 0.00 0.00 0.00 0.00 0.00 0.00
0.01 0.01 0.01 0.00 0.00 0.00 0.00 0.00 0.00 0.00 0.00 0.00 0.00 0.00 0.00 0.00 0.00 0.00 0.00 0.00 0.01 0.02 0.03 0.07 0.04 0.01 0.00 0.00 0.00 0.00 0.00 0.00 0.04 0.02 0.00 0.00 0.00 0.00 0.00 0.00 0.00 0.00 0.00 0.00 0.00 0.00 0.00 0.00 0.00
0.02 0.01 0.01 0.00 0.00 0.00 0.00 0.00 0.00 0.00 0.00 0.00 0.00 0.00 0.00 0.00 0.00 0.00 0.00 0.00 0.01 0.03 0.03 0.05 0.03 0.04 0.00 0.00 0.00 0.01 0.00 0.00 0.00 0.01 0.00 0.00 0.00 0.00 0.00 0.00 0.00 0.00 0.00 0.00 0.00 0.00 0.00 0.00 0.00
0.01 0.02 0.01 0.01 0.00 0.00 0.00 0.00 0.00 0.00 0.00 0.00 0.00 0.00 0.00 0.00 0.00 0.00 0.00 0.00 0.03 0.10 0.07 0.02 0.02 0.19 0.07 0.01 0.04 0.10 0.04 0.01 0.03 0.01 0.01 0.01 0.00 0.00 0.00 0.00 0.00 0.00 0.00 0.00 0.00 0.00 0.00 0.00 0.00
0.00 0.00 0.00 0.01 0.00 0.01 0.01 0.00 0.00 0.00 0.00 0.00 0.00 0.00 0.00 0.00 0.00 0.00 0.00 0.00 0.03 0.10 0.10 0.05 0.04 0.12 0.15 0.03 0.02 0.03 0.01 0.02 0.00 0.00 0.00 0.01 0.00 0.00 0.00 0.00 0.00 0.00 0.00 0.00 0.00 0.00 0.00 0.00 0.00
0.00 0.00 0.00 0.00 0.00 0.00 0.01 0.01 0.00 0.00 0.00 0.00 0.00 0.00 0.00 0.00 0.00 0.00 0.00 0.01 0.02 0.05 0.08 0.06 0.04 0.06 0.14 0.07 0.05 0.09 0.05 0.03 0.05 0.00 0.00 0.00 0.00 0.00 0.00 0.00 0.00 0.00 0.00 0.00 0.00 0.00 0.00 0.00 0.00
0.00 0.00 0.00 0.00 0.01 0.01 0.00 0.01 0.00 0.00 0.00 0.00 0.00 0.00 0.00 0.00 0.00 0.00 0.00 0.02 0.04 0.05 0.06 0.06 0.04 0.04 0.12 0.15 0.05 0.05 0.05 0.04 0.03 0.00 0.00 0.00 0.00 0.00 0.00 0.00 0.00 0.00 0.00 0.00 0.00 0.00 0.00 0.00 0.00
0.00 0.01 0.00 0.00 0.01 0.02 0.01 0.02 0.00 0.00 0.00 0.01 0.00 0.00 0.00 0.00 0.00 0.00 0.00 0.02 0.04 0.03 0.02 0.03 0.04 0.11 0.15 0.10 0.03 0.04 0.04 0.01 0.01 0.05 0.01 0.00 0.00 0.00 0.00 0.00 0.00 0.00 0.00 0.00 0.00 0.00 0.00 0.00 0.00
0.01 0.01 0.01 0.00 0.00 0.01 0.01 0.02 0.01 0.00 0.00 0.00 0.00 0.00 0.00 0.00 0.00 0.00 0.00 0.03 0.06 0.04 0.00 0.01 0.03 0.08 0.10 0.13 0.11 0.10 0.08 0.04 0.03 0.03 0.01 0.01 0.01 0.01 0.00 0.00 0.00 0.00 0.00 0.00 0.00 0.00 0.00 0.00 0.00
0.00 0.00 0.03 0.04 0.02 0.01 0.00 0.01 0.01 0.01 0.00 0.00 0.01 0.01 0.01 0.00 0.00 0.00 0.00 0.04 0.06 0.06 0.01 0.00 0.02 0.05 0.04 0.12 0.15 0.13 0.10 0.04 0.02 0.01 0.01 0.02 0.01 0.01 0.00 0.00 0.00 0.00 0.00 0.00 0.00 0.00 0.00 0.00 0.00
0.00 0.03 0.06 0.05 0.03 0.01 0.00 0.00 0.00 0.00 0.00 0.00 0.00 0.00 0.00 0.00 0.00 0.00 0.00 0.04 0.04 0.04 0.03 0.00 0.01 0.03 0.02 0.05 0.09 0.12 0.06 0.10 0.14 0.03 0.02 0.01 0.00 0.00 0.01 0.00 0.00 0.00 0.00 0.00 0.00 0.00 0.00 0.00 0.00
0.00 0.01 0.02 0.01 0.01 0.01 0.02 0.01 0.00 0.00 0.00 0.00 0.00 0.00 0.00 0.00 0.00 0.00 0.01 0.03 0.02 0.04 0.05 0.02 0.01 0.03 0.03 0.04 0.02 0.05 0.04 0.09 0.21 0.24 0.17 0.10 0.03 0.01 0.05 0.04 0.00 0.00 0.00 0.00 0.00 0.00 0.00 0.00 0.00
0.00 0.00 0.00 0.01 0.01 0.02 0.01 0.00 0.00 0.00 0.00 0.00 0.00 0.00 0.00 0.00 0.00 0.00 0.03 0.04 0.01 0.00 0.02 0.02 0.02 0.03 0.02 0.02 0.03 0.03 0.03 0.05 0.09 0.20 0.21 0.19 0.11 0.04 0.03 0.05 0.02 0.00 0.00 0.00 0.00 0.00 0.00 0.00 0.00
0.00 0.00 0.00 0.00 0.03 0.02 0.00 0.00 0.00 0.00 0.00 0.00 0.00 0.00 0.00 0.00 0.00 0.00 0.02 0.04 0.02 0.00 0.00 0.00 0.01 0.01 0.02 0.02 0.03 0.03 0.02 0.04 0.04 0.08 0.10 0.11 0.10 0.07 0.04 0.04 0.04 0.02 0.00 0.00 0.00 0.00 0.00 0.00 0.00
0.00 0.00 0.00 0.00 0.00 0.01 0.01 0.00 0.01 0.00 0.00 0.00 0.00 0.00 0.00 0.00 0.00 0.00 0.00 0.00 0.01 0.00 0.00 0.00 0.00 0.03 0.04 0.04 0.02 0.01 0.01 0.02 0.03 0.05 0.04 0.02 0.02 0.02 0.03 0.04 0.03 0.02 0.01 0.00 0.00 0.00 0.00 0.00 0.00
0.00 0.00 0.00 0.00 0.00 0.00 0.00 0.00 0.00 0.00 0.00 0.00 0.00 0.00 0.00 0.00 0.00 0.00 0.00 0.00 0.00 0.00 0.00 0.00 0.01 0.02 0.04 0.06 0.04 0.02 0.01 0.02 0.02 0.02 0.03 0.02 0.01 0.01 0.00 0.00 0.00 0.00 0.01 0.00 0.00 0.00 0.00 0.00 0.00
MSLP
1012.35 1012.31 1012.15 1011.48 1010.43 1008.23 1006.17 1005.04 1004.08 1003.17 1003.03 1003.78 1003.98 1004.63 1004.92 1004.94 1005.01 1006.06 1007.32 1006.86 1007.14 1008.27 1009.62 1010.84 1011.54 1011.99 1012.51 1012.96 1013.29 1013.72 1014.09 1014.30 1014.64 1014.97 1015.20 1015.43 1015.75 1015.92 1016.17 1016.42 1016.59 1016.79 1016.91 1017.16 1017.38 1017.63 1017.83 1018.14 1018.30
1012.02 1012.32 1012.58 1012.21 1010.45 1007.60 1005.61 1004.97 1003.84 1003.65 1003.54 1004.42 1004.80 1005.30 1005.15 1004.77 1004.87 1006.11 1006.84 1007.25 1007.46 1008.23 1009.53 1010.52 1011.57 1012.01 1012.60 1013.07 1013.54 1013.92 1014.23 1014.45 1014.82 1015.19 1015.48 1015.70 1016.03 1016.26 1016.57 1016.84 1016.98 1017.23 1017.40 1017.67 1017.96 1018.17 1018.47 1018.71 1018.84
1011.74 1011.58 1011.73 1011.89 1010.37 1007.16 1005.42 1004.68 1004.00 1003.76 1004.27 1004.64 1005.14 1005.13 1004.91 1004.84 1004.75 1005.20 1006.74 1007.44 1007.79 1008.37 1009.40 1010.55 1011.54 1012.10 1012.62 1013.10 1013.58 1014.03 1014.31 1014.64 1014.98 1015.38 1015.69 1016.01 1016.23 1016.49 1016.81 1017.10 1017.58 1017.78 1018.00 1018.24 1018.52 1018.71 1019.01 1019.20 1019.38
1011.24 1011.30 1010.44 1008.36 1007.70 1007.51 1006.14 1004.76 1004.26 1003.88 1004.20 1004.65 1004.60 1004.99 1005.34 1005.05 1005.19 1005.61 1007.00 1007.72 1007.86 1008.54 1009.43 1011.04 1011.62 1012.11 1012.64 1013.24 1013.70 1014.09 1014.40 1014.83 1015.19 1015.59 1015.90 1016.24 1016.56 1016.87 1017.10 1017.49 1017.90 1018.26 1018.52 1018.71 1019.07 1019.34 1019.58 1019.80 1019.95
1010.64 1009.79 1008.42 1006.10 1005.05 1005.28 1005.16 1004.77 1003.90 1003.55 1003.47 1004.28 1004.33 1004.41 1004.79 1005.53 1006.31 1006.88 1007.23 1007.77 1007.84 1008.61 1009.70 1011.06 1011.83 1012.23 1012.69 1013.29 1013.79 1014.19 1014.63 1015.05 1015.38 1015.82 1016.18 1016.52 1016.84 1017.30 1017.66 1017.94 1018.39 1018.71 1018.97 1019.26 1019.57 1019.89 1020.12 1020.40 1020.61
1010.53 1009.51 1006.67 1004.14 1003.98 1004.05 1003.22 1003.33 1003.37 1003.49 1003.37 1004.19 1004.45 1004.31 1004.58 1005.43 1006.47 1007.04 1007.30 1007.73 1007.97 1009.04 1010.22 1011.07 1012.06 1012.47 1012.90 1013.36 1013.84 1014.35 1014.87 1015.33 1015.65 1015.97 1016.37 1016.73 1017.13 1017.57 1018.07 1018.45 1018.79 1019.05 1019.44 1019.77 1020.02 1020.30 1020.66 1021.01 1021.17
1010.29 1008.46 1005.09 1004.72 1003.29 1002.74 1002.53 1002.70 1002.87 1002.91 1003.07 1002.96 1003.70 1004.17 1004.25 1005.59 1006.37 1007.12 1007.41 1007.77 1008.29 1009.82 1010.65 1011.10 1011.98 1012.62 1013.17 1013.64 1014.13 1014.63 1015.17 1015.55 1015.85 1016.27 1016.54 1016.84 1017.32 1017.83 1018.41 1018.89 1019.33 1019.57 1019.82 1020.26 1020.50 1020.90 1021.27 1021.57 1021.71
1010.62 1009.03 1006.59 1004.02 1002.81 1001.46 1002.04 1002.52 1003.63 1003.48 1002.74 1003.06 1003.32 1003.78 1003.86 1004.83 1006.38 1007.15 1007.55 1007.87 1009.09 1010.34 1010.77 1011.19 1011.69 1012.42 1013.04 1013.78 1014.36 1014.98 1015.47 1015.86 1016.22 1016.64 1017.07 1017.42 1017.87 1018.38 1018.79 1019.32 1019.73 1020.13 1020.43 1020.84 1021.16 1021.55 1021.83 1022.13 1022.32
1010.83 1008.95 1005.20 1002.87 1003.35 1002.87 1002.17 1002.02 1003.18 1004.28 1003.74 1003.00 1002.94 1004.00 1004.33 1004.63 1006.34 1007.17 1007.66 1008.58 1009.71 1010.63 1010.84 1011.17 1011.53 1012.03 1012.73 1013.59 1014.62 1015.28 1015.86 1016.27 1016.67 1017.05 1017.38 1017.69 1018.10 1018.69 1019.06 1020.01 1020.40 1020.72 1021.18 1021.69 1022.01 1022.24 1022.49 1022.85 1023.04
1010.39 1008.29 1003.60 1005.99 1004.74 1003.31 1002.73 1002.22 1003.11 1004.45 1003.81 1002.90 1003.20 1004.34 1005.52 1005.79 1006.37 1006.94 1007.84 1008.58 1009.55 1010.31 1010.72 1011.07 1011.48 1011.89 1012.59 1013.52 1014.57 1015.17 1016.03 1016.34 1016.83 1017.30 1017.48 1017.70 1018.44 1019.25 1019.96 1020.63 1021.10 1021.51 1021.91 1022.19 1022.46 1022.60 1022.65 1022.79 1023.44
1009.73 1007.20 1007.35 1006.30 1005.83 1004.86 1003.55 1002.77 1003.10 1003.88 1003.26 1002.82 1003.19 1004.15 1005.34 1005.45 1006.20 1006.81 1007.68 1008.00 1008.45 1009.40 1010.42 1010.92 1011.25 1011.58 1012.39 1013.32 1014.14 1015.19 1015.80 1016.39 1017.02 1017.52 1018.10 1018.68 1019.30 1020.01 1020.62 1021.21 1021.69 1021.89 1022.10 1022.29 1022.43 1022.78 1023.03 1023.14 1023.54
1009.92 1008.42 1008.33 1007.65 1006.46 1005.82 1004.77 1004.12 1003.56 1003.61 1003.58 1003.39 1003.22 1004.20 1004.94 1005.24 1005.87 1006.32 1007.13 1007.63 1008.54 1009.01 1009.81 1010.41 1011.10 1011.66 1012.46 1013.08 1013.93 1014.87 1015.68 1016.38 1017.23 1017.90 1018.32 1018.71 1019.41 1020.17 1020.54 1021.14 1021.34 1021.62 1021.81 1022.03 1022.56 1023.32 1024.06 1024.26 1024.46
1010.54 1009.39 1008.10 1008.29 1007.82 1006.96 1006.76 1004.68 1003.88 1003.53 1004.06 1003.63 1003.15 1003.63 1004.26 1005.03 1005.63 1006.17 1006.58 1007.20 1007.90 1008.50 1009.68 1010.50 1010.96 1011.75 1012.58 1013.21 1013.77 1014.90 1015.90 1016.59 1017.47 1017.93 1018.48 1018.82 1019.15 1019.88 1020.74 1021.47 1021.55 1021.84 1022.27 1022.40 1023.26 1024.00 1024.54 1024.85 1025.15
1011.58 1010.88 1009.41 1008.21 1008.04 1007.36 1007.48 1006.40 1004.82 1003.77 1004.24 1004.02 1003.67 1003.36 1003.95 1004.56 1005.10 1005.82 1006.35 1006.89 1007.54 1008.39 1009.45 1010.36 1010.97 1011.82 1012.47 1013.36 1014.09 1014.96 1015.96 1016.85 1017.51 1018.08 1018.48 1018.61 1018.97 1020.03 1020.93 1021.62 1021.61 1022.12 1022.43 1022.84 1023.74 1024.61 1024.98 1025.21 1025.66
1011.63 1010.92 1009.52 1008.68 1008.55 1008.34 1008.12 1006.99 1004.98 1004.79 1003.83 1003.87 1003.65 1003.73 1003.82 1004.29 1004.81 1005.06 1005.90 1006.62 1007.38 1008.10 1009.08 1009.95 1010.93 1011.85 1012.73 1013.46 1014.22 1015.04 1016.02 1016.78 1017.58 1018.09 1018.35 1018.89 1019.39 1020.16 1020.85 1021.27 1021.80 1022.34 1022.98 1023.52 1024.37 1024.80 1025.17 1025.46 1026.12
1011.62 1010.96 1009.02 1008.09 1008.55 1007.84 1009.07 1006.72 1005.77 1005.62 1004.18 1003.46 1003.60 1003.62 1003.90 1004.17 1004.42 1004.68 1005.63 1006.52 1007.21 1007.96 1008.94 1009.94 1010.96 1011.84 1012.81 1013.53 1014.40 1015.17 1015.87 1016.82 1017.54 1018.11 1018.50 1019.23 1019.63 1020.29 1020.73 1021.33 1021.98 1022.83 1023.60 1024.00 1024.39 1024.79 1025.60 1026.04 1026.71
1011.44 1010.49 1008.80 1007.43 1007.39 1007.33 1007.58 1006.67 1006.07 1005.37 1004.50 1003.61 1003.42 1003.53 1003.68 1004.02 1004.25 1004.39 1005.22 1006.26 1007.07 1007.88 1008.72 1009.86 1010.68 1011.47 1012.58 1013.52 1014.41 1015.20 1016.07 1017.00 1017.62 1018.21 1018.62 1019.26 1019.75 1020.38 1020.86 1021.52 1022.43 1023.14 1023.52 1023.78 1024.18 1024.79 1025.48 1026.29 1027.37
1010.84 1010.46 1008.98 1007.24 1006.54 1006.55 1006.41 1006.72 1006.37 1005.16 1004.87 1004.00 1003.56 1003.37 1003.31 1003.67 1004.00 1004.32 1004.67 1005.74 1006.76 1007.56 1008.68 1009.66 1010.38 1011.28 1012.37 1013.51 1014.56 1015.65 1016.49 1017.31 1017.81 1018.12 1018.74 1019.44 1019.73 1020.45 1020.90 1021.78 1022.56 1022.88 1023.14 1023.78 1024.31 1024.91 1025.59 1026.50 1027.62
1011.20 1010.64 1009.95 1008.74 1007.81 1006.71 1005.61 1006.12 1005.38 1005.12 1004.86 1004.16 1003.56 1003.20 1002.97 1003.39 1003.91 1004.29 1004.57 1005.38 1006.57 1007.51 1008.38 1009.36 1010.34 1011.36 1012.11 1013.31 1014.42 1015.70 1016.39 1017.34 1018.06 1018.34 1018.89 1019.26 1019.74 1020.39 1021.01 1021.80 1022.42 1022.90 1023.30 1023.86 1024.43 1025.18 1025.87 1026.95 1028.06
1011.65 1011.03 1009.88 1009.02 1007.89 1007.84 1005.90 1005.17 1005.46 1005.23 1004.97 1005.14 1004.10 1003.41 1003.06 1003.31 1003.64 1004.06 1004.47 1005.14 1006.27 1007.30 1008.50 1009.51 1010.32 1011.05 1011.94 1012.65 1013.84 1015.08 1016.19 1017.22 1017.89 1018.50 1019.09 1019.12 1019.74 1020.32 1020.95 1021.69 1022.28 1022.74 1023.37 1023.99 1024.72 1025.35 1026.09 1026.94 1027.26
1011.98 1011.21 1010.03 1009.27 1008.50 1007.64 1006.48 1005.62 1005.04 1004.75 1004.85 1005.20 1004.34 1003.62 1003.55 1003.28 1003.45 1003.91 1004.47 1004.90 1005.95 1007.12 1008.38 1009.18 1010.06 1010.90 1011.94 1012.86 1013.60 1015.16 1016.33 1017.53 1018.38 1018.84 1019.31 1019.40 1019.77 1020.40 1020.91 1021.54 1022.09 1022.64 1023.19 1023.96 1024.69 1025.33 1025.85 1026.46 1027.25
1011.69 1010.77 1009.74 1009.25 1008.84 1007.94 1007.62 1005.78 1004.85 1004.77 1005.01 1005.27 1004.77 1003.77 1003.63 1003.42 1003.55 1003.92 1004.46 1005.02 1005.86 1007.10 1008.37 1009.14 1010.03 1010.96 1012.04 1012.79 1013.25 1014.06 1015.28 1016.59 1017.65 1018.27 1018.92 1019.51 1019.69 1020.41 1020.87 1021.42 1022.02 1022.61 1023.20 1023.97 1024.58 1025.05 1025.52 1026.15 1026.74
1012.26 1011.69 1010.62 1009.28 1008.73 1008.61 1008.44 1007.91 1004.50 1005.30 1005.68 1005.64 1005.58 1004.95 1004.47 1004.00 1003.75 1003.95 1004.42 1004.96 1005.88 1007.14 1008.11 1009.09 1009.99 1010.74 1011.56 1012.54 1013.10 1013.47 1014.83 1015.95 1017.04 1018.24 1019.02 1019.54 1019.77 1020.32 1020.88 1021.31 1021.81 1022.48 1023.02 1023.64 1024.22 1024.85 1025.27 1025.86 1026.52
1013.31 1011.94 1010.32 1009.30 1009.02 1008.88 1008.49 1008.88 1009.14 1009.15 1010.51 1010.23 1009.38 1008.26 1007.52 1006.16 1004.75 1004.60 1004.61 1005.21 1006.09 1007.15 1008.17 1008.93 1009.72 1010.55 1011.36 1012.31 1013.07 1012.96 1014.10 1015.37 1016.61 1017.95 1018.82 1019.46 1019.88 1020.16 1020.69 1021.18 1021.76 1022.31 1022.81 1023.29 1023.99 1024.60 1025.15 1025.56 1026.09
1013.67 1012.24 1010.50 1009.32 1009.15 1008.32 1008.12 1009.78 1012.70 1013.00 1013.62 1013.38 1012.34 1011.20 1009.82 1008.50 1007.03 1005.66 1005.19 1005.58 1006.30 1007.41 1007.99 1008.74 1009.50 1010.41 1011.33 1012.10 1012.74 1013.12 1013.83 1014.58 1015.31 1016.54 1017.85 1018.92 1019.60 1020.06 1020.44 1021.10 1021.69 1022.24 1022.65 1023.32 1023.93 1024.46 1025.00 1025.50 1026.13
1013.53 1012.69 1011.32 1009.63 1008.30 1008.54 1009.48 1010.64 1013.93 1015.05 1015.44 1014.59 1013.81 1013.16 1011.72 1010.46 1009.11 1007.65 1006.35 1005.88 1006.97 1007.71 1008.30 1008.76 1009.40 1010.20 1011.22 1011.79 1012.47 1013.13 1013.85 1014.67 1015.24 1016.18 1016.86 1018.19 1018.92 1019.43 1020.11 1020.99 1021.55 1022.20 1022.61 1023.29 1023.86 1024.40 1024.86 1025.67 1026.25
1013.84 1013.40 1013.35 1011.22 1008.62 1009.06 1010.44 1012.82 1014.54 1015.02 1015.24 1014.91 1014.43 1014.24 1013.75 1013.03 1011.91 1010.26 1008.60 1006.92 1007.37 1007.82 1008.63 1009.09 1009.62 1010.32 1010.99 1011.59 1012.33 1013.05 1013.78 1014.61 1015.32 1016.37 1017.03 1017.85 1018.74 1019.23 1019.89 1020.52 1021.08 1021.69 1022.26 1022.98 1023.68 1024.50 1025.21 1025.76 1026.26
1014.68 1014.64 1013.56 1011.91 1010.40 1009.93 1011.78 1013.78 1015.65 1015.82 1016.32 1016.29 1015.75 1015.78 1015.21 1014.25 1013.19 1012.01 1010.71 1008.79 1008.11 1008.39 1009.00 1009.43 1009.84 1010.25 1010.89 1011.46 1012.07 1012.86 1013.74 1014.60 1015.39 1016.31 1017.21 1017.90 1018.84 1019.37 1019.85 1020.64 1021.28 1021.82 1022.58 1023.03 1023.79 1024.78 1025.48 1025.69 1026.36
1015.29 1015.24 1014.80 1014.00 1012.76 1011.94 1012.55 1015.57 1017.90 1018.16 1017.84 1017.26 1017.10 1016.71 1016.37 1015.56 1014.34 1013.42 1012.34 1011.02 1009.65 1009.15 1009.36 1009.92 1010.35 1010.76 1011.14 1011.55 1012.08 1013.01 1013.88 1014.67 1015.40 1016.12 1017.03 1017.81 1018.78 1019.50 1020.42 1020.91 1021.97 1022.55 1023.02 1023.90 1024.33 1024.97 1025.31 1025.69 1026.32
1017.93 1017.45 1016.26 1015.01 1014.36 1013.96 1014.13 1016.53 1018.18 1018.57 1018.18 1018.02 1018.00 1017.45 1016.87 1016.37 1015.68 1014.65 1013.61 1012.51 1011.51 1010.71 1010.34 1010.43 1010.85 1011.18 1011.36 1011.74 1012.29 1013.16 1013.88 1014.71 1015.54 1016.14 1017.02 1017.68 1018.64 1018.14 1019.37 1020.23 1021.45 1021.64 1022.66 1024.38 1024.44 1025.37 1025.76 1025.91 1026.60
Thickness
5653 5655 5657 5657 5648 5658 5665 5688 5720 5718 5722 5733 5731 5722 5717 5727 5719 5707 5738 5749 5750 5743 5735 5727 5723 5719 5718 5717 5718 5718 5718 5719 5719 5719 5721 5721 5721 5722 5721 5721 5722 5722 5723 5722 5722 5722 5722 5721 5721
5649 5647 5643 5635 5634 5647 5667 5702 5701 5714 5722 5722 5717 5711 5713 5714 5738 5730 5732 5741 5744 5740 5731 5726 5719 5718 5715 5714 5714 5714 5715 5716 5716 5716 5716 5717 5717 5717 5717 5717 5717 5717 5718 5717 5717 5717 5716 5716 5716
5643 5644 5633 5613 5607 5633 5669 5697 5705 5713 5714 5711 5703 5714 5714 5718 5736 5737 5737 5736 5736 5735 5728 5721 5716 5714 5713 5713 5712 5711 5711 5712 5713 5712 5713 5713 5713 5714 5714 5713 5711 5712 5713 5712 5711 5712 5711 5711 5711
5633 5630 5633 5638 5623 5631 5663 5692 5702 5703 5705 5711 5712 5695 5715 5733 5732 5740 5733 5730 5731 5729 5723 5714 5713 5712 5711 5709 5708 5708 5709 5708 5708 5709 5709 5709 5708 5708 5710 5710 5708 5707 5706 5707 5705 5705 5705 5704 5705
5627 5631 5625 5644 5657 5664 5672 5689 5702 5698 5705 5702 5707 5697 5708 5721 5728 5726 5723 5724 5725 5723 5718 5710 5708 5708 5708 5706 5705 5705 5704 5704 5705 5704 5704 5705 5705 5703 5703 5704 5702 5701 5701 5700 5699 5699 5699 5698 5698
5607 5618 5629 5646 5660 5670 5686 5701 5700 5694 5702 5698 5691 5698 5710 5722 5717 5719 5721 5719 5722 5715 5710 5706 5703 5703 5703 5703 5701 5700 5699 5699 5700 5702 5701 5701 5701 5700 5698 5697 5696 5696 5695 5694 5694 5694 5693 5692 5692
5598 5613 5636 5642 5659 5667 5678 5701 5691 5694 5695 5698 5706 5687 5710 5708 5713 5714 5715 5716 5715 5704 5702 5702 5698 5698 5697 5696 5695 5695 5694 5695 5697 5697 5698 5699 5697 5695 5692 5691 5689 5690 5690 5688 5689 5687 5687 5686 5686
5582 5593 5613 5642 5648 5664 5680 5688 5680 5681 5690 5710 5707 5679 5693 5710 5709 5707 5709 5709 5704 5697 5698 5698 5697 5695 5694 5692 5692 5690 5690 5691 5692 5692 5692 5692 5691 5689 5688 5685 5685 5683 5683 5682 5682 5681 5681 5680 5680
5565 5571 5605 5644 5638 5648 5673 5680 5673 5674 5676 5691 5694 5693 5700 5703 5702 5698 5699 5697 5691 5690 5694 5695 5695 5694 5693 5690 5687 5686 5686 5686 5687 5687 5688 5687 5685 5683 5683 5679 5679 5678 5676 5674 5673 5674 5675 5673 5674
5540 5563 5623 5613 5626 5636 5652 5668 5664 5652 5663 5677 5678 5684 5680 5691 5692 5690 5689 5690 5687 5686 5690 5694 5694 5692 5691 5688 5684 5683 5680 5682 5681 5680 5681 5683 5681 5677 5676 5673 5671 5669 5668 5668 5667 5667 5669 5669 5667
5531 5559 5582 5593 5598 5612 5628 5645 5654 5642 5654 5670 5670 5676 5676 5687 5686 5686 5685 5691 5695 5694 5689 5690 5692 5691 5689 5686 5684 5680 5679 5679 5677 5676 5676 5673 5673 5670 5668 5666 5663 5663 5663 5663 5663 5662 5662 5662 5662
5503 5546 5552 5563 5582 5589 5602 5623 5632 5639 5650 5664 5670 5673 5669 5678 5680 5684 5683 5688 5685 5688 5688 5689 5688 5687 5684 5683 5682 5678 5677 5675 5673 5671 5671 5670 5669 5666 5665 5662 5662 5661 5662 5661 5659 5655 5652 5653 5652
5467 5518 5541 5543 5548 5562 5570 5597 5619 5630 5638 5650 5660 5667 5664 5668 5671 5677 5682 5684 5687 5687 5683 5682 5684 5683 5679 5680 5679 5676 5672 5670 5667 5668 5666 5666 5668 5665 5661 5657 5658 5658 5657 5657 5652 5649 5646 5646 5644
5434 5452 5492 5523 5529 5546 5544 5563 5598 5618 5622 5630 5640 5656 5657 5660 5669 5669 5673 5677 5679 5682 5678 5678 5680 5678 5677 5675 5674 5672 5667 5664 5664 5662 5662 5663 5665 5661 5658 5654 5656 5654 5653 5653 5648 5644 5642 5642 5640
5428 5440 5474 5482 5503 5513 5521 5540 5579 5595 5616 5619 5627 5641 5648 5655 5662 5666 5671 5673 5677 5680 5679 5677 5676 5674 5672 5670 5667 5666 5663 5660 5660 5659 5661 5659 5658 5657 5656 5655 5653 5651 5648 5647 5643 5641 5640 5638 5635
5410 5425 5456 5494 5486 5507 5499 5531 5557 5575 5598 5611 5616 5631 5636 5645 5654 5664 5665 5667 5672 5674 5672 5672 5669 5667 5665 5664 5661 5660 5658 5656 5656 5656 5656 5654 5654 5653 5653 5652 5650 5645 5642 5642 5641 5639 5635 5633 5629
5400 5414 5447 5488 5498 5507 5498 5508 5542 5563 5582 5598 5609 5618 5627 5634 5645 5658 5662 5663 5666 5667 5668 5665 5667 5665 5661 5658 5655 5653 5651 5650 5650 5650 5650 5651 5651 5650 5649 5647 5644 5641 5641 5641 5639 5637 5634 5631 5624
5402 5412 5433 5476 5499 5501 5508 5496 5526 5554 5564 5583 5598 5609 5620 5625 5635 5648 5658 5660 5661 5663 5662 5661 5664 5662 5657 5652 5649 5644 5643 5642 5644 5645 5645 5645 5648 5645 5646 5643 5640 5640 5641 5639 5637 5634 5631 5626 5621
5390 5397 5399 5431 5455 5472 5506 5499 5526 5543 5550 5568 5588 5600 5611 5617 5628 5638 5648 5653 5653 5655 5655 5655 5655 5652 5653 5647 5643 5639 5640 5639 5637 5638 5639 5642 5642 5641 5640 5638 5637 5636 5636 5635 5633 5629 5626 5620 5614
5379 5389 5408 5434 5458 5446 5495 5510 5519 5530 5543 5546 5571 5586 5600 5608 5616 5626 5637 5643 5644 5646 5645 5645 5647 5648 5649 5650 5645 5640 5637 5634 5634 5634 5633 5638 5637 5637 5636 5635 5633 5633 5632 5630 5626 5624 5621 5617 5618
5367 5384 5409 5427 5436 5446 5477 5495 5513 5528 5538 5540 5561 5580 5589 5600 5609 5618 5625 5634 5637 5636 5635 5640 5642 5643 5643 5640 5639 5632 5628 5624 5624 5626 5628 5631 5631 5631 5631 5630 5629 5629 5628 5625 5622 5620 5619 5616 5613
5368 5400 5417 5427 5434 5450 5449 5493 5510 5528 5535 5537 5551 5573 5582 5592 5600 5608 5613 5620 5626 5626 5627 5631 5634 5637 5634 5633 5637 5638 5635 5630 5627 5628 5627 5625 5627 5626 5626 5625 5624 5623 5622 5620 5618 5617 5617 5614 5612
5366 5369 5390 5426 5437 5443 5445 5458 5520 5528 5536 5542 5549 5562 5569 5579 5588 5596 5605 5615 5619 5618 5620 5623 5626 5630 5631 5629 5632 5635 5630 5628 5625 5620 5618 5618 5620 5619 5619 5620 5620 5619 5618 5616 5615 5613 5612 5612 5609
5352 5366 5397 5424 5437 5432 5457 5461 5442 5459 5449 5444 5474 5502 5521 5544 5575 5589 5601 5607 5609 5608 5610 5614 5619 5622 5625 5623 5622 5631 5629 5624 5621 5615 5613 5612 5613 5615 5614 5614 5614 5613 5614 5613 5611 5608 5607 5609 5608
5350 5375 5411 5424 5431 5453 5473 5460 5390 5403 5407 5423 5441 5471 5498 5522 5545 5567 5585 5596 5600 5596 5602 5605 5611 5613 5615 5617 5618 5621 5623 5625 5626 5621 5617 5611 5610 5610 5612 5610 5609 5608 5608 5606 5604 5604 5603 5602 5601
5354 5373 5404 5437 5445 5456 5447 5458 5393 5390 5395 5415 5432 5452 5477 5498 5525 5547 5570 5585 5584 5584 5589 5596 5602 5606 5606 5609 5612 5613 5614 5615 5618 5616 5616 5610 5610 5610 5606 5604 5603 5601 5602 5599 5597 5597 5597 5594 5592
5362 5379 5361 5397 5457 5457 5440 5407 5393 5400 5404 5411 5424 5436 5448 5466 5483 5509 5536 5570 5575 5578 5580 5586 5591 5594 5598 5601 5603 5604 5606 5607 5608 5605 5606 5605 5603 5604 5602 5600 5598 5597 5596 5594 5591 5589 5587 5586 5584
5365 5365 5387 5407 5453 5464 5422 5406 5383 5386 5389 5399 5407 5415 5429 5446 5467 5486 5506 5546 5564 5564 5567 5572 5580 5587 5589 5593 5596 5596 5596 5597 5597 5597 5594 5594 5590 5592 5593 5591 5590 5590 5588 5587 5583 5579 5578 5579 5576
5365 5366 5372 5368 5396 5428 5454 5392 5357 5366 5377 5387 5393 5404 5414 5427 5449 5467 5486 5505 5535 5548 5553 5558 5564 5571 5576 5581 5584 5585 5585 5586 5587 5588 5586 5584 5582 5580 5579 5580 5576 5574 5575 5571 5571 5570 5571 5570 5567
5353 5344 5365 5389 5396 5401 5415 5383 5359 5364 5376 5380 5383 5393 5406 5415 5429 5450 5468 5485 5501 5520 5535 5542 5548 5557 5564 5568 5571 5571 5572 5574 5575 5577 5576 5577 5572 5579 5573 5576 5565 5565 5565 5552 5557 5553 5555 5559 5555